Weather History for KLHX - June, 2013

Change the Weather History Date:

Thursday, June 13, 2013

  Actual Average Record
Temperature  
Mean Temperature 85 °F 72 °F  
Max Temperature 102 °F 87 °F 106 °F (1952)
Min Temperature 67 °F 56 °F 42 °F (1947)
Degree Days  
Heating Degree Days 0 1  
Month to date heating degree days 11 15  
Since 1 June heating degree days 11 15  
Since 1 July heating degree days 5085 5270  
Cooling Degree Days 20 7  
Month to date cooling degree days 133 76  
Year to date cooling degree days 271 149  
Since 1 June cooling degree days 133 76  
Growing Degree Days 34 (Base 50)    
Moisture  
Dew Point 50 °F    
Average Humidity 42    
Maximum Humidity 68    
Minimum Humidity 15    
Precipitation  
Precipitation 0.16 in 0.04 in 0.46 in (1989)
Month to date precipitation 0.18 0.61  
Year to date precipitation 0.85 4.90  
Sea Level Pressure  
Sea Level Pressure 29.84 in    
Wind  
Wind Speed 10 mph (ESE)    
Max Wind Speed 58 mph    
Max Gust Speed 66 mph    
Visibility 8 miles    
Events Rain    
T = Trace of Precipitation, MM = Missing Value Source: NWS Daily Summary

Daily Weather History Graph

Daily Weather History Graph

Search for Another Location

Airport or City:

Trip Planner

Search our weather history database for the weather conditions in past years. The results will help you decide how hot, cold, wet, or windy it might be!

Date:

Astronomy

Jun. 13, 2013 Rise Set
Actual Time 5:30 AM MDT 8:17 PM MDT
Civil Twilight 4:59 AM MDT 8:49 PM MDT
Nautical Twilight 4:19 AM MDT 9:28 PM MDT
Astronomical Twilight 3:35 AM MDT 10:13 PM MDT
Moon 10:05 AM MDT (6/13) 11:29 PM MDT (6/13)
Length of Visible Light 15h 49m
Length of Day
14h 47m
Waxing Crescent, 22% of the Moon is Illuminated
Jun 13
Waxing Crescent
Jun 16
First Quarter
Jun 23
Full
Jun 29
Last Quarter
Jul 8
New

Hourly Weather History & Observations

Time (MDT) Temp. Heat Index Dew Point Humidity Pressure Visibility Wind Dir Wind Speed Gust Speed Precip Events Conditions
12:53 AM 75.9 °F - 45.0 °F 33% 29.81 in 10.0 mi East 15.0 mph - N/A   Clear
1:53 AM 73.0 °F - 44.1 °F 35% 29.81 in 10.0 mi East 13.8 mph - N/A   Clear
2:53 AM 73.0 °F - 46.0 °F 38% 29.80 in 10.0 mi East 16.1 mph - N/A   Clear
3:53 AM 71.1 °F - 50.0 °F 47% 29.79 in 10.0 mi East 18.4 mph - N/A   Clear
4:53 AM 69.1 °F - 52.0 °F 54% 29.81 in 10.0 mi East 13.8 mph - N/A   Clear
5:53 AM 68.0 °F - 54.0 °F 61% 29.84 in 10.0 mi East 10.4 mph - N/A   Clear
6:53 AM 66.9 °F - 55.9 °F 68% 29.86 in 10.0 mi East 5.8 mph - N/A   Clear
7:53 AM 68.0 °F - 55.9 °F 65% 29.88 in 10.0 mi East 10.4 mph - N/A   Clear
8:53 AM 73.0 °F - 55.9 °F 55% 29.89 in 10.0 mi East 8.1 mph - N/A   Clear
9:53 AM 80.1 °F 79.9 °F 53.1 °F 39% 29.88 in 10.0 mi East 4.6 mph - N/A   Clear
10:53 AM 84.9 °F - 44.1 °F 24% 29.86 in 10.0 mi Calm Calm - N/A   Clear
11:53 AM 89.1 °F - 50.0 °F 26% 29.83 in 10.0 mi ENE 5.8 mph - N/A   Clear
12:53 PM 95.0 °F - 48.0 °F 20% 29.78 in 10.0 mi East 6.9 mph - N/A   Clear
1:53 PM 102.0 °F - 46.0 °F 15% 29.73 in 10.0 mi East 13.8 mph 20.7 mph N/A   Clear
2:53 PM 97.0 °F - 41.0 °F 14% 29.71 in 10.0 mi SSE 21.9 mph 27.6 mph N/A   Clear
3:08 PM 96.8 °F - 28.4 °F 9% 29.91 in 1.2 mi SE 41.4 mph 54.1 mph N/A   Haze
3:15 PM 91.4 °F - 37.4 °F 15% 29.97 in 0.5 mi South 40.3 mph 54.1 mph N/A   Haze
3:20 PM 89.6 °F - 44.6 °F 21% 29.97 in 1.5 mi SSE 15.0 mph 49.5 mph 0.00 in Rain Light Rain
3:23 PM 89.6 °F - 44.6 °F 21% 29.99 in 3.0 mi SSE 13.8 mph 48.3 mph 0.01 in Rain Light Rain
3:34 PM 75.2 °F - 51.8 °F 44% 30.02 in 3.0 mi West 40.3 mph 65.6 mph 0.07 in Rain Light Rain
3:53 PM 73.0 °F - 55.0 °F 53% 29.86 in 5.0 mi Variable 3.5 mph - 0.16 in Rain Rain
4:28 PM 78.8 °F - 53.6 °F 42% 29.98 in 10.0 mi North 10.4 mph - 0.00 in   Partly Cloudy
4:53 PM 75.9 °F - 57.9 °F 54% 29.78 in 10.0 mi NE 11.5 mph - 0.00 in   Clear
5:53 PM 82.0 °F - 50.0 °F 33% 29.77 in 10.0 mi South 11.5 mph 26.5 mph 0.00 in   Scattered Clouds
6:53 PM 80.1 °F 79.9 °F 53.1 °F 39% 29.75 in 10.0 mi North - - N/A   Clear
7:53 PM 78.1 °F - 57.0 °F 48% 29.76 in 10.0 mi North - - N/A   Clear
8:53 PM 77.0 °F - 53.1 °F 43% 29.76 in 10.0 mi North - - N/A   Clear
9:53 PM 77.0 °F - 52.0 °F 42% 29.77 in 10.0 mi North - - N/A   Clear
10:53 PM 73.0 °F - 55.0 °F 53% 29.77 in 10.0 mi North - - N/A   Clear
11:53 PM 71.1 °F - 54.0 °F 55% 29.77 in 10.0 mi North - - N/A   Clear